Voltar ao catálogo

FENGYUN 1C DEB

AtivoSSO
NORAD 30608·DEBRIS·🇨🇳 China

Lançado May 10, 1999 de Taiyuan Satellite Launch Center

Loading…

Próximas Passagens (próximas 24 horas)

TLE

AtualizadoSource: Space-Track

Época: Sep 14, 2026, 10:22 UTC

1 30608U 99025AMP 26257.43238520  .00000772  00000-0  31830-3 0  9995
2 30608  98.6819 324.3715 0014751  89.1030 335.8083 14.29615674 13766

Acompanhe FENGYUN 1C DEB em tempo real com AllMySat

Download on the App Store